GEOSCAN 2 (RS92S2)

Last updated on Mon Nov 03 2025 00:03:22 GMT+0000 (Coordinated Universal Time)

1 64890U 25155Q 25306.48495720 .00011416 00000+0 46269-3 0 9992 2 64890 97.4271 270.5825 0005467 237.7818 122.2890 15.24797817 46168
UTC large
Height (km)
Speed (km/s)
/
Latitude / Longitude
Inclination (degrees)
Orbital Period (minutes)
Azimuth
Elevation
Range (km)
Doppler Factor

Next 0 passes for location: London (51.5072 / 0.1276)

Sorry there are no passes over London.